Torna al catalogo

APSTAR 2R

TELSTAR 10

AttivoComunicazioniGEO
NORAD 25010·PAYLOAD·🇨🇳 China

Lanciato Oct 16, 1997 da Xichang Satellite Launch Center

Loading…

TLE

AggiornatoSource: Space-Track

Epoca: Sep 14, 2026, 14:21 UTC

1 25010U 97062A   26257.59855597 -.00000299  00000-0  00000-0 0  9998
2 25010  10.9092  46.8959 0007060 278.7927  35.4550  0.99214351105414

Traccia APSTAR 2R in tempo reale con AllMySat

Download on the App Store